Content
SEND FEEDBACK

Daily
Averages
Monthly
Summary
Australia

AVALON BEACH, NEW SOUTH WALES


Home > Oceania > Australia > New South Wales
Elevation: 33 feet     Latitude: 38 02S     Longitude: 144 29E

WEATHER
 
SELECT A DAY
Number of Records: 231,497;   Date Range: 11/10/99 - 8/10/14
 
SHARE

PRINT THIS DATA

[ ← Previous Day ]
WEATHER ALMANAC - JANUARY 31, 2013
[ Next Day → ]
[ °C ]   °F
Weather ElementAverageHighLow
Temperature61.6 °F73.4 °F (12:30 pm)53.6 °F (11:30 pm)
Dewpoint54.5 °F59 °F (1:30 pm)51.8 °F (3:00 am)
Humidity78 %94 % (4:55 pm)52 % (12:00 pm)
Barometer29.83 in29.95 in (10:30 pm)29.71 in (4:00 pm)
Wind Speed11.3 mph23 mph (4:23 pm)
Wind Gust31.1 mph (7:07 pm)
Weather ElementAverage
Visibility6.1 mi
Wind DirectionWSW (232.9 °)

Weather ElementTotal
Precipitation---
Heating Degree Days1.5 (Base 65)
Growing Degree Days13.5 (Base 50)
Averaged from 65 records on January 31, 2013
WEATHER CONDITIONS BREAKOUT
WIND DIRECTION BREAKOUT
WEATHER BY HOUR - JANUARY 31, 2013
[ °C ]   °F
Local TimeTemperatureDewpointHumidityBarometerVisibilityWind DirectionWind SpeedGust SpeedPrecipitationEventsConditions
12:00 AM64.4 °F55.4 °F73 %29.89 in6.2 miSouth (190°)5.8 mphOvercast
12:30 AM62.6 °F53.6 °F72 %29.89 in6.2 miSSW (200°)6.9 mphScattered Clouds
1:00 AM62.6 °F55.4 °F77 %29.89 in6.2 miSSW (200°)4.6 mph
1:30 AM60.8 °F53.6 °F77 %29.89 in6.2 miWNW (290°)4.6 mph
2:00 AM59.0 °F53.6 °F82 %29.89 in6.2 miWNW (300°)5.8 mph
2:30 AM59.0 °F53.6 °F82 %29.89 in6.2 miWNW (300°)8.1 mph
3:00 AM58.0 °F52.0 °F73 %29.88 inNW (310°)5.8 mph
3:00 AM57.2 °F51.8 °F82 %29.86 in6.2 miNW (310°)5.8 mph
3:30 AM57.2 °F51.8 °F82 %29.86 in6.2 miNW (310°)4.6 mphScattered Clouds
4:00 AM57.2 °F51.8 °F82 %29.86 in6.2 miWest (270°)5.8 mph
4:30 AM57.2 °F51.8 °F82 %29.83 in6.2 miNW (320°)4.6 mphScattered Clouds
5:00 AM57.2 °F51.8 °F82 %29.83 in6.2 miNNW (340°)5.8 mphOvercast
5:30 AM57.2 °F51.8 °F82 %29.83 in6.2 miNNW (330°)5.8 mphMostly Cloudy
6:00 AM57.0 °F52.0 °F79 %29.85 inWest (260°)2.3 mphOvercast
6:00 AM57.2 °F51.8 °F82 %29.83 in6.2 miWest (260°)2.3 mphOvercast
6:30 AM57.2 °F51.8 °F82 %29.83 in6.2 miWest (260°)1.2 mphOvercast
7:00 AM57.2 °F53.6 °F88 %29.83 in6.2 miNW (310°)1.2 mphOvercast
7:30 AM59.0 °F53.6 °F82 %29.83 in6.2 miCalmOvercast
8:00 AM60.8 °F53.6 °F77 %29.83 in6.2 miCalmMostly Cloudy
8:30 AM62.6 °F53.6 °F72 %29.83 in6.2 miWNW (290°)4.6 mphMostly Cloudy
9:00 AM65.0 °F54.0 °F58 %29.86 inWest (270°)4.6 mph
9:00 AM66.2 °F53.6 °F64 %29.83 in6.2 miWest (270°)4.6 mphMostly Cloudy
9:30 AM68.0 °F53.6 °F60 %29.83 in6.2 miWest (270°)5.8 mphMostly Cloudy
10:00 AM68.0 °F53.6 °F60 %29.83 in6.2 miSW (230°)4.6 mphScattered Clouds
10:30 AM68.0 °F51.8 °F56 %29.83 in6.2 miSW (230°)9.2 mphMostly Cloudy
11:00 AM71.6 °F57.2 °F60 %29.83 in6.2 miSSW (200°)11.5 mphMostly Cloudy
11:30 AM69.8 °F57.2 °F64 %29.83 in6.2 miSouth (180°)11.5 mphMostly Cloudy
12:00 PM72.0 °F58.0 °F52 %29.83 inSouth (170°)12.7 mph
12:00 PM71.6 °F57.2 °F60 %29.80 in6.2 miSouth (170°)12.7 mphMostly Cloudy
12:30 PM73.4 °F57.2 °F57 %29.80 in6.2 miSSE (150°)11.5 mphMostly Cloudy
1:00 PM71.6 °F55.4 °F57 %29.77 in6.2 miSSE (160°)15.0 mphScattered Clouds
1:30 PM73.4 °F59.0 °F61 %29.77 in6.2 miSouth (190°)17.3 mphOvercast
2:00 PM73.4 °F57.2 °F57 %29.74 in6.2 miSouth (180°)17.3 mphScattered Clouds
2:30 PM68.0 °F57.2 °F68 %29.74 in6.2 miSSW (200°)16.1 mphRainLight Rain
3:00 PM67.0 °F56.0 °F59 %29.76 inSSW (200°)16.1 mphOvercast
3:00 PM68.0 °F55.4 °F64 %29.74 in6.2 miSSW (200°)16.1 mphRainLight Rain Showers
3:30 PM66.2 °F57.2 °F73 %29.74 in6.2 miSouth (170°)16.1 mphRainLight Rain Showers
4:00 PM68.0 °F55.4 °F64 %29.71 in6.2 miSouth (180°)18.4 mphMostly Cloudy
4:10 PM66.2 °F55.4 °F68 %29.71 in6.2 miSouth (180°)19.6 mphThunderstormMostly Cloudy
4:17 PM64.4 °F55.4 °F73 %29.71 in6.2 miSouth (180°)21.9 mphThunderstormMostly Cloudy
4:21 PM64.4 °F55.4 °F73 %29.77 in6.2 miWSW (250°)21.9 mphRain-ThunderstormLight Rain Showers
4:23 PM62.6 °F57.2 °F82 %29.80 in3.1 miWSW (250°)23.0 mphRain-ThunderstormHeavy Rain Showers
4:30 PM60.8 °F57.2 °F88 %29.80 inWSW (240°)19.6 mphThunderstormThunderstorm
4:33 PM60.8 °F57.2 °F88 %29.80 inWSW (240°)19.6 mph
4:55 PM59.0 °F57.2 °F94 %29.80 in6.2 miWSW (240°)15.0 mphRainLight Rain
5:00 PM59.0 °F57.2 °F94 %29.80 in6.2 miWSW (250°)15.0 mphRainLight Rain
5:24 PM59.0 °F57.2 °F94 %29.80 in3.7 miWest (260°)15.0 mphRainRain
5:30 PM59.0 °F57.2 °F94 %29.83 inWest (260°)16.1 mphRainRain
5:32 PM59.0 °F57.2 °F94 %29.80 inWest (260°)17.3 mph28.8 mphRainRain
6:00 PM59.0 °F55.4 °F88 %29.83 in6.2 miWSW (250°)18.4 mphRainLight Rain
6:00 PM59.0 °F56.0 °F87 %29.84 inWSW (250°)18.4 mphOvercast
6:30 PM59.0 °F57.2 °F94 %29.83 in6.2 miSSW (210°)16.1 mphRainLight Rain Showers
7:00 PM57.2 °F55.4 °F94 %29.83 in6.2 miSW (220°)18.4 mphRainRain Showers
7:07 PM57.2 °F53.6 °F88 %29.83 in6.2 miSSW (210°)19.6 mph31.1 mphRainRain Showers
7:21 PM55.4 °F51.8 °F88 %29.86 in6.2 miSSW (210°)23.0 mphRainLight Rain Showers
7:30 PM55.4 °F51.8 °F88 %29.86 in6.2 miSSW (210°)20.7 mphRainLight Rain
8:00 PM55.4 °F53.6 °F94 %29.89 in6.2 miSW (220°)16.1 mphRainLight Rain
8:30 PM55.4 °F53.6 °F94 %29.89 in6.2 miWSW (240°)12.7 mphDrizzle
9:00 PM56.0 °F53.0 °F85 %29.93 inWSW (240°)8.1 mphOvercast
9:00 PM55.4 °F53.6 °F94 %29.92 in6.2 miWSW (240°)8.1 mphLight Drizzle
9:30 PM55.4 °F53.6 °F94 %29.92 in6.2 miWest (270°)6.9 mphOvercast
10:00 PM55.4 °F51.8 °F88 %29.92 in6.2 miWest (260°)9.2 mphOvercast
10:30 PM55.4 °F51.8 °F88 %29.95 in6.2 miWest (270°)8.1 mphOvercast
11:00 PM55.4 °F51.8 °F88 %29.92 in6.2 miWest (280°)10.4 mphOvercast
11:30 PM53.6 °F51.8 °F94 %29.92 in6.2 miWest (280°)10.4 mphScattered Clouds
Hourly data recorded from YMAV, located miles away from Avalon Beach, New South Wales







STORIES FROM OUR PARTNERS